Farmington, NM

12:42 AM MDT on September 15, 2019 (GMT -0600)
Four Corners Regional

Weather History for KFMN - August, 2019

Change the Weather History Date:

Sunday, August 25, 2019

  Actual Average Record
Temperature  
Mean Temperature 76 °F -  
Max Temperature 96 °F 86 °F 96 °F (2007)
Min Temperature 55 °F 56 °F 48 °F (1989)
Cooling Degree Days 10    
Growing Degree Days 26 (Base 50)    
Moisture  
Dew Point 30 °F    
Average Humidity 20    
Maximum Humidity 37    
Minimum Humidity 10    
Precipitation  
Precipitation 0.00 in - - ()
Sea Level Pressure  
Sea Level Pressure 29.89 in    
Wind  
Wind Speed 7 mph ()    
Max Wind Speed 17 mph    
Max Gust Speed 25 mph    
Visibility 10.0 miles    
Events      
Averages and records for this station are not official NWS values.
T = Trace of Precipitation, MM = Missing Value Source: Averaged Metar Reports

Daily Weather History Graph

Daily Weather History Graph

Search for Another Location

Airport or City:

Astronomy

Aug. 25, 2019 Rise Set
Actual Time 6:38 AM MDT 7:51 PM MDT
Civil Twilight 6:11 AM MDT 8:18 PM MDT
Nautical Twilight 5:39 AM MDT 8:49 PM MDT
Astronomical Twilight 5:05 AM MDT 9:23 PM MDT
Moon 1:20 AM MDT (8/25) 4:10 PM MDT (8/25)
Length of Visible Light 14h 06m
Length of Day
13h 12m
Waning Crescent, 28% of the Moon is Illuminated
Aug 25
Waning Crescent
Aug 30
New
Sep 5
First Quarter
Sep 13
Full
Sep 21
Last Quarter

Hourly Weather History & Observations

Time (MDT) Temp. Dew Point Humidity Pressure Visibility Wind Dir Wind Speed Gust Speed Precip Events Conditions
12:53 AM 66.0 °F 26.1 °F 22% 29.90 in 10.0 mi NNE 5.8 mph - N/A   Clear
1:53 AM 62.1 °F 26.1 °F 25% 29.90 in 10.0 mi NNE 4.6 mph - N/A   Clear
2:53 AM 60.1 °F 26.1 °F 27% 29.91 in 10.0 mi NNE 4.6 mph - N/A   Clear
3:53 AM 57.9 °F 25.0 °F 28% 29.91 in 10.0 mi NNE 9.2 mph - N/A   Clear
4:53 AM 55.9 °F 25.0 °F 30% 29.93 in 10.0 mi NNE 3.5 mph - N/A   Clear
5:53 AM 57.9 °F 30.0 °F 35% 29.94 in 10.0 mi East 5.8 mph - N/A   Clear
6:53 AM 57.0 °F 30.9 °F 37% 29.97 in 10.0 mi East 6.9 mph - N/A   Clear
7:53 AM 62.1 °F 30.9 °F 31% 29.98 in 10.0 mi East 9.2 mph - N/A   Clear
8:53 AM 66.9 °F 33.1 °F 28% 29.99 in 10.0 mi East 8.1 mph - N/A   Clear
9:53 AM 73.9 °F 35.1 °F 24% 29.98 in 10.0 mi East 6.9 mph - N/A   Clear
10:53 AM 82.0 °F 32.0 °F 16% 29.98 in 10.0 mi West 4.6 mph - N/A   Clear
11:53 AM 84.9 °F 32.0 °F 15% 29.94 in 10.0 mi SW 9.2 mph - N/A   Clear
12:53 PM 89.1 °F 33.1 °F 14% 29.92 in 10.0 mi SW 10.4 mph - N/A   Clear
1:53 PM 93.0 °F 30.9 °F 11% 29.89 in 10.0 mi West 12.7 mph 19.6 mph N/A   Clear
2:53 PM 95.0 °F 30.0 °F 10% 29.86 in 10.0 mi WNW 15.0 mph 21.9 mph N/A   Clear
3:53 PM 96.1 °F 30.9 °F 10% 29.85 in 10.0 mi West 17.3 mph 25.3 mph N/A   Clear
4:53 PM 95.0 °F 28.9 °F 10% 29.84 in 10.0 mi NW 13.8 mph 21.9 mph N/A   Clear
5:53 PM 95.0 °F 30.0 °F 10% 29.82 in 10.0 mi West 17.3 mph 23.0 mph N/A   Clear
6:53 PM 93.0 °F 30.0 °F 11% 29.82 in 10.0 mi West 16.1 mph 21.9 mph N/A   Clear
7:53 PM 89.1 °F 30.0 °F 12% 29.82 in 10.0 mi NW 8.1 mph - N/A   Clear
8:53 PM 84.0 °F 30.9 °F 15% 29.83 in 10.0 mi NW 9.2 mph - N/A   Clear
9:53 PM 82.9 °F 30.9 °F 15% 29.82 in 10.0 mi NW 8.1 mph - N/A   Clear
10:53 PM 77.0 °F 30.9 °F 19% 29.82 in 10.0 mi West 4.6 mph - N/A   Clear
11:53 PM 71.1 °F 30.9 °F 23% 29.84 in 10.0 mi Calm Calm - N/A   Clear